�������l�o���
Date,Time,MP-1(��Sv/h),MP-2(��Sv/h),MP-3(��Sv/h),MP-4(��Sv/h),MP-5(��Sv/h),MP-6(��Sv/h),MP-7(��Sv/h),MP-8(��Sv/h),����,����(m/s),���J
2021/05/06,00:00,0.613,0.909,0.577,1.120,0.787,0.369,0.642,0.602,���쐼,6.9,��
2021/05/06,00:10,0.613,0.908,0.577,1.122,0.789,0.369,0.642,0.604,�쐼,7.0,��
2021/05/06,00:20,0.614,0.909,0.576,1.119,0.788,0.367,0.644,0.601,�쐼,7.1,��
2021/05/06,00:30,0.614,0.909,0.576,1.123,0.789,0.368,0.642,0.602,�쐼,4.9,��
2021/05/06,00:40,0.615,0.908,0.578,1.120,0.787,0.368,0.643,0.603,��쐼,5.6,��
2021/05/06,00:50,0.614,0.908,0.577,1.121,0.788,0.367,0.644,0.602,�쐼,4.2,��
2021/05/06,01:00,0.615,0.910,0.574,1.121,0.788,0.368,0.642,0.603,��쐼,3.8,��
2021/05/06,01:10,0.613,0.909,0.576,1.123,0.786,0.369,0.643,0.603,��쐼,3.3,��
2021/05/06,01:20,0.614,0.911,0.575,1.120,0.786,0.368,0.644,0.602,��쓌,3.7,��
2021/05/06,01:30,0.613,0.908,0.575,1.120,0.790,0.368,0.643,0.604,��,1.1,�L
2021/05/06,01:40,0.612,0.910,0.576,1.119,0.789,0.369,0.643,0.604,��,1.5,��
2021/05/06,01:50,0.614,0.908,0.577,1.121,0.788,0.371,0.643,0.603,���쐼,2.0,��
2021/05/06,02:00,0.614,0.909,0.576,1.123,0.789,0.369,0.641,0.603,���쐼,2.6,�L
2021/05/06,02:10,0.615,0.907,0.576,1.121,0.789,0.368,0.643,0.602,��,3.3,��
2021/05/06,02:20,0.612,0.908,0.578,1.123,0.790,0.369,0.642,0.603,���k��,3.3,��
2021/05/06,02:30,0.615,0.910,0.577,1.123,0.790,0.370,0.642,0.602,���k��,3.7,��
2021/05/06,02:40,0.613,0.908,0.576,1.122,0.789,0.368,0.643,0.603,��,3.9,��
2021/05/06,02:50,0.614,0.911,0.577,1.122,0.788,0.369,0.642,0.603,���k��,3.8,��
2021/05/06,03:00,0.614,0.910,0.576,1.123,0.789,0.368,0.643,0.603,���k��,4.9,��
2021/05/06,03:10,0.614,0.909,0.576,1.122,0.791,0.369,0.642,0.601,���k��,6.0,��
2021/05/06,03:20,0.613,0.908,0.576,1.121,0.791,0.369,0.642,0.604,�k��,4.9,��
2021/05/06,03:30,0.614,0.907,0.576,1.120,0.789,0.368,0.643,0.603,���k��,4.9,��
2021/05/06,03:40,0.614,0.910,0.575,1.121,0.791,0.368,0.644,0.603,���k��,6.4,��
2021/05/06,03:50,0.614,0.909,0.577,1.124,0.790,0.371,0.644,0.603,���k��,5.9,��
2021/05/06,04:00,0.615,0.907,0.576,1.123,0.791,0.367,0.640,0.603,���k��,6.2,��
2021/05/06,04:10,0.613,0.911,0.577,1.122,0.790,0.368,0.641,0.603,���k��,5.9,��
2021/05/06,04:20,0.614,0.909,0.577,1.124,0.792,0.369,0.643,0.602,�k��,5.8,��
2021/05/06,04:30,0.615,0.911,0.576,1.123,0.790,0.369,0.642,0.602,���k��,4.7,��
2021/05/06,04:40,0.616,0.909,0.577,1.122,0.788,0.368,0.642,0.604,�k��,3.0,��
2021/05/06,04:50,0.613,0.909,0.577,1.122,0.791,0.369,0.642,0.602,�k��,4.1,��
2021/05/06,05:00,0.615,0.908,0.577,1.125,0.790,0.370,0.643,0.603,���k��,3.0,��
2021/05/06,05:10,0.615,0.909,0.576,1.125,0.790,0.370,0.644,0.605,���k��,3.0,��
2021/05/06,05:20,0.616,0.910,0.577,1.125,0.790,0.370,0.643,0.604,���k��,3.7,��
2021/05/06,05:30,0.615,0.910,0.576,1.124,0.790,0.369,0.643,0.603,���k��,3.0,��
2021/05/06,05:40,0.615,0.908,0.576,1.125,0.790,0.369,0.642,0.603,���k��,3.6,��
2021/05/06,05:50,0.614,0.910,0.576,1.125,0.790,0.369,0.644,0.603,��,2.9,��
2021/05/06,06:00,0.614,0.911,0.576,1.123,0.789,0.368,0.644,0.604,��,3.9,��
2021/05/06,06:10,0.615,0.909,0.577,1.125,0.790,0.369,0.644,0.603,��,4.2,��
2021/05/06,06:20,0.614,0.910,0.577,1.122,0.793,0.368,0.643,0.606,��,4.5,��
2021/05/06,06:30,0.614,0.907,0.577,1.125,0.790,0.369,0.644,0.604,��,4.8,��
2021/05/06,06:40,0.613,0.910,0.576,1.124,0.790,0.370,0.642,0.606,��,4.9,��
2021/05/06,06:50,0.614,0.909,0.576,1.124,0.791,0.369,0.644,0.604,��,4.7,��
2021/05/06,07:00,0.615,0.912,0.577,1.127,0.791,0.369,0.643,0.604,��,4.7,��
2021/05/06,07:10,0.615,0.910,0.578,1.124,0.791,0.370,0.644,0.605,���k��,4.4,��
2021/05/06,07:20,0.615,0.911,0.577,1.125,0.790,0.370,0.644,0.604,���k��,4.0,��
2021/05/06,07:30,0.615,0.910,0.578,1.125,0.791,0.369,0.645,0.603,���k��,3.4,��
2021/05/06,07:40,0.616,0.911,0.578,1.123,0.791,0.370,0.643,0.602,���k��,2.9,��
2021/05/06,07:50,0.617,0.910,0.577,1.126,0.793,0.368,0.643,0.602,���k��,2.6,��
2021/05/06,08:00,0.616,0.909,0.578,1.124,0.791,0.370,0.642,0.602,�k��,2.2,��
2021/05/06,08:10,0.616,0.912,0.577,1.125,0.792,0.369,0.643,0.603,�k��,0.9,��
2021/05/06,08:20,0.616,0.912,0.579,1.124,0.792,0.370,0.642,0.602,�k,2.0,��
2021/05/06,08:30,0.614,0.910,0.578,1.127,0.791,0.368,0.644,0.602,�k�k��,2.3,��
2021/05/06,08:40,0.616,0.910,0.580,1.129,0.792,0.369,0.644,0.602,�k�k��,2.9,��
2021/05/06,08:50,0.613,0.909,0.581,1.126,0.794,0.367,0.644,0.601,�k�k��,2.6,��
2021/05/06,09:00,0.614,0.909,0.578,1.127,0.792,0.367,0.644,0.602,�k�k��,2.5,��
2021/05/06,09:10,0.614,0.911,0.577,1.127,0.792,0.368,0.643,0.602,���k��,2.0,��
2021/05/06,09:20,0.614,0.912,0.576,1.127,0.791,0.368,0.643,0.602,���k��,2.0,��
2021/05/06,09:30,0.615,0.910,0.578,1.130,0.792,0.368,0.645,0.600,��,2.5,��
2021/05/06,09:40,0.615,0.912,0.576,1.125,0.792,0.369,0.645,0.603,��,2.5,��
2021/05/06,09:50,0.616,0.910,0.578,1.129,0.793,0.370,0.645,0.601,��,2.2,��
2021/05/06,10:00,0.616,0.911,0.578,1.126,0.794,0.368,0.645,0.602,��,2.6,��
2021/05/06,10:10,0.616,0.912,0.580,1.130,0.795,0.370,0.644,0.603,��,3.4,��
2021/05/06,10:20,0.617,0.910,0.578,1.130,0.793,0.369,0.646,0.603,��,3.5,��
2021/05/06,10:30,0.616,0.912,0.579,1.130,0.795,0.368,0.645,0.603,��,3.5,��
2021/05/06,10:40,0.617,0.914,0.578,1.128,0.795,0.368,0.646,0.601,���쓌,3.9,��
2021/05/06,10:50,0.617,0.917,0.578,1.130,0.793,0.368,0.648,0.604,�쓌,4.2,��
2021/05/06,11:00,0.619,0.915,0.580,1.126,0.795,0.369,0.644,0.603,�쓌,4.2,��
2021/05/06,11:10,0.618,0.915,0.580,1.128,0.797,0.369,0.646,0.603,�쓌,4.0,��
2021/05/06,11:20,0.618,0.915,0.580,1.127,0.796,0.368,0.645,0.602,���쓌,4.4,��
2021/05/06,11:30,0.618,0.918,0.578,1.128,0.797,0.369,0.644,0.603,�쓌,3.4,��
2021/05/06,11:40,0.618,0.919,0.582,1.128,0.795,0.369,0.646,0.604,�쓌,3.9,��
2021/05/06,11:50,0.620,0.919,0.581,1.125,0.797,0.370,0.648,0.602,�쓌,3.6,��
2021/05/06,12:00,0.619,0.918,0.581,1.128,0.798,0.370,0.647,0.605,�쓌,4.6,��
2021/05/06,12:10,0.620,0.919,0.581,1.126,0.798,0.370,0.646,0.603,��쓌,5.1,��
2021/05/06,12:20,0.620,0.920,0.580,1.130,0.797,0.370,0.647,0.604,��쓌,5.5,��
2021/05/06,12:30,0.620,0.920,0.580,1.126,0.799,0.370,0.646,0.603,��쓌,4.9,��
2021/05/06,12:40,0.621,0.922,0.580,1.128,0.802,0.371,0.646,0.604,��쓌,4.7,��
2021/05/06,12:50,0.621,0.921,0.582,1.128,0.799,0.370,0.646,0.605,��쓌,5.1,��
2021/05/06,13:00,0.622,0.922,0.581,1.128,0.800,0.371,0.646,0.604,��쓌,5.1,��
2021/05/06,13:10,0.620,0.921,0.580,1.131,0.799,0.371,0.647,0.602,��쓌,5.3,��
2021/05/06,13:20,0.618,0.920,0.580,1.133,0.800,0.370,0.647,0.603,�쓌,4.8,��
2021/05/06,13:30,0.620,0.922,0.581,1.131,0.801,0.370,0.647,0.604,�쓌,3.9,��
2021/05/06,13:40,0.620,0.920,0.582,1.132,0.802,0.371,0.647,0.605,��쓌,4.5,��
2021/05/06,13:50,0.621,0.924,0.582,1.130,0.801,0.370,0.647,0.606,��쓌,4.6,��
2021/05/06,14:00,0.620,0.923,0.582,1.133,0.800,0.370,0.646,0.603,��쓌,6.1,��
2021/05/06,14:10,0.621,0.918,0.582,1.130,0.802,0.371,0.647,0.604,��쓌,5.1,��
2021/05/06,14:20,0.620,0.922,0.582,1.130,0.801,0.370,0.646,0.604,��쓌,5.5,��
2021/05/06,14:30,0.621,0.922,0.581,1.128,0.802,0.370,0.648,0.603,��쓌,5.4,��
2021/05/06,14:40,0.621,0.922,0.582,1.131,0.802,0.370,0.647,0.605,��쓌,6.4,��
2021/05/06,14:50,0.623,0.924,0.582,1.128,0.804,0.370,0.647,0.604,��쓌,6.0,��
2021/05/06,15:00,0.623,0.924,0.583,1.130,0.803,0.371,0.646,0.604,��쓌,4.8,��
2021/05/06,15:10,0.623,0.925,0.582,1.130,0.803,0.370,0.648,0.605,��쓌,6.0,��
2021/05/06,15:20,0.623,0.923,0.583,1.130,0.803,0.371,0.646,0.606,��쓌,6.4,��
2021/05/06,15:30,0.622,0.924,0.582,1.130,0.801,0.370,0.647,0.605,��쓌,6.0,��
2021/05/06,15:40,0.621,0.925,0.583,1.131,0.803,0.371,0.647,0.603,��쓌,6.8,��
2021/05/06,15:50,0.622,0.924,0.584,1.133,0.804,0.372,0.646,0.603,��쓌,5.2,��
2021/05/06,16:00,0.622,0.921,0.583,1.130,0.803,0.371,0.648,0.605,��쓌,5.5,��
2021/05/06,16:10,0.621,0.924,0.582,1.131,0.803,0.371,0.647,0.604,��,5.7,��
2021/05/06,16:20,0.623,0.923,0.582,1.132,0.805,0.372,0.648,0.603,��쓌,5.8,��
2021/05/06,16:30,0.624,0.924,0.581,1.131,0.801,0.371,0.647,0.603,��쓌,5.8,��
2021/05/06,16:40,0.623,0.924,0.583,1.130,0.803,0.371,0.646,0.605,��쓌,5.2,��
2021/05/06,16:50,0.622,0.925,0.582,1.131,0.803,0.371,0.648,0.605,��쓌,5.2,��
2021/05/06,17:00,0.624,0.927,0.583,1.133,0.805,0.371,0.646,0.604,��쓌,5.7,��
2021/05/06,17:10,0.623,0.928,0.582,1.134,0.805,0.372,0.647,0.606,��쓌,7.6,��
2021/05/06,17:20,0.623,0.926,0.583,1.133,0.804,0.371,0.647,0.605,��쓌,7.7,��
2021/05/06,17:30,0.622,0.926,0.584,1.133,0.801,0.372,0.648,0.605,��,7.6,��
2021/05/06,17:40,0.623,0.925,0.582,1.134,0.804,0.373,0.647,0.606,��,6.3,��
2021/05/06,17:50,0.622,0.925,0.584,1.131,0.802,0.372,0.646,0.607,��,5.9,��
2021/05/06,18:00,0.623,0.924,0.582,1.136,0.803,0.372,0.646,0.606,��,6.0,��
2021/05/06,18:10,0.622,0.926,0.583,1.133,0.802,0.371,0.644,0.607,��,6.8,��
2021/05/06,18:20,0.622,0.927,0.583,1.133,0.805,0.372,0.647,0.606,��,6.5,��
2021/05/06,18:30,0.623,0.929,0.583,1.135,0.802,0.372,0.645,0.607,��,6.5,��
2021/05/06,18:40,0.624,0.930,0.583,1.137,0.804,0.374,0.643,0.607,��,7.2,��
2021/05/06,18:50,0.625,0.931,0.583,1.137,0.805,0.374,0.646,0.606,��,6.7,��
2021/05/06,19:00,0.624,0.928,0.584,1.136,0.804,0.374,0.647,0.606,��,6.6,��
2021/05/06,19:10,0.626,0.930,0.584,1.136,0.806,0.372,0.649,0.607,��,5.6,��
2021/05/06,19:20,0.624,0.930,0.585,1.135,0.804,0.374,0.649,0.608,��쐼,5.0,��
2021/05/06,19:30,0.623,0.927,0.583,1.139,0.806,0.373,0.648,0.608,��쐼,4.3,��
2021/05/06,19:40,0.624,0.927,0.584,1.135,0.806,0.373,0.648,0.606,��,4.6,��
2021/05/06,19:50,0.623,0.927,0.584,1.137,0.805,0.374,0.650,0.604,��,5.4,��
2021/05/06,20:00,0.624,0.927,0.583,1.135,0.805,0.372,0.650,0.606,��,6.6,��
2021/05/06,20:10,0.622,0.928,0.583,1.134,0.807,0.372,0.648,0.605,��,7.0,��
2021/05/06,20:20,0.624,0.928,0.585,1.136,0.806,0.373,0.649,0.606,��,6.4,��
2021/05/06,20:30,0.624,0.927,0.584,1.136,0.806,0.373,0.649,0.606,��,6.2,��
2021/05/06,20:40,0.624,0.928,0.586,1.135,0.805,0.373,0.649,0.607,��,5.9,��
2021/05/06,20:50,0.627,0.929,0.584,1.137,0.807,0.372,0.648,0.608,��,6.3,��
2021/05/06,21:00,0.626,0.928,0.583,1.136,0.806,0.372,0.649,0.605,��,6.0,��
2021/05/06,21:10,0.626,0.927,0.585,1.137,0.806,0.371,0.649,0.607,��,5.7,��
2021/05/06,21:20,0.626,0.927,0.584,1.138,0.807,0.374,0.649,0.606,��쐼,6.0,��
2021/05/06,21:30,0.625,0.927,0.586,1.136,0.805,0.373,0.648,0.607,��쐼,6.2,��
2021/05/06,21:40,0.624,0.930,0.585,1.137,0.805,0.372,0.649,0.606,��쐼,7.1,��
2021/05/06,21:50,0.624,0.928,0.584,1.139,0.806,0.373,0.648,0.607,��,7.0,��
2021/05/06,22:00,0.625,0.928,0.584,1.137,0.807,0.373,0.648,0.607,��,6.9,��
2021/05/06,22:10,0.625,0.928,0.585,1.137,0.806,0.372,0.650,0.607,��쐼,6.8,��
2021/05/06,22:20,0.624,0.928,0.585,1.139,0.807,0.372,0.650,0.607,��쐼,5.8,��
2021/05/06,22:30,0.624,0.928,0.585,1.138,0.808,0.372,0.649,0.607,��쐼,4.6,��
2021/05/06,22:40,0.623,0.927,0.585,1.135,0.804,0.372,0.648,0.606,�쐼,4.1,��
2021/05/06,22:50,0.625,0.927,0.584,1.136,0.806,0.372,0.649,0.607,�쐼,4.2,��
2021/05/06,23:00,0.624,0.926,0.586,1.137,0.806,0.373,0.650,0.607,�쐼,4.9,��
2021/05/06,23:10,0.625,0.927,0.585,1.138,0.806,0.372,0.648,0.606,�쐼,5.1,��
2021/05/06,23:20,0.624,0.925,0.584,1.137,0.807,0.373,0.649,0.607,�쐼,4.4,��
2021/05/06,23:30,0.625,0.925,0.584,1.138,0.807,0.374,0.649,0.606,�쐼,4.5,��
2021/05/06,23:40,0.624,0.925,0.583,1.136,0.805,0.373,0.649,0.606,�쐼,5.0,��
2021/05/06,23:50,0.624,0.927,0.582,1.136,0.804,0.373,0.649,0.608,�쐼,4.5,��
